Regional Weather Roundup
Issued by NWS Upton, NY

Current Version | Previous Version | Text Only | Print | Product List | Glossary On
Versions: 1 2 3 4 5 6 7 8 9 10 11 12 13 14 15 16 17 18 19 20 21 22 23 24 25 26 27 28 29 30 31 32 33 34 35 36 37 38 39 40 41 42 43 44 45 46 47 48 49 50
000
ASUS41 KOKX 291104
RWROKX

REGIONAL WEATHER ROUNDUP
NATIONAL WEATHER SERVICE NEW YORK NY
700 AM EDT SAT AUG 29 2015

NOTE: "FAIR" INDICATES FEW OR NO CLOUDS BELOW 12,000 FEET WITH NO
SIGNIFICANT WEATHER AND/OR OBSTRUCTIONS TO VISIBILITY.

NYZ071-072-176-178-NJZ106-104-291200-
NEW YORK CITY METRO AREA


CITY           SKY/WX    TMP DP  RH WIND       PRES   REMARKS
CENTRAL PARK   CLEAR     67  54  63 CALM      30.23R
LAGUARDIA APRT PTCLDY    70  55  59 NW6       30.20R
KENNEDY INTL   PTCLDY    70  57  63 CALM      30.21R
NEWARK/LIBERTY PTCLDY    66  56  70 CALM      30.20R
BRNX BOT. GARD   N/A     63  55  77 NE1       30.21F
TETERBORO      CLEAR     62  54  74 CALM      30.20R
$$

NYZ177-179-078>081-291200-
LONG ISLAND NEW YORK

CITY           SKY/WX    TMP DP  RH WIND       PRES   REMARKS
FARMINGDALE    CLEAR     63  56  78 N3        30.21R
ISLIP          PTCLDY    62  58  86 CALM      30.19R
SHIRLEY        CLEAR     59  56  89 CALM      30.21R
WESTHAMPTON    CLEAR     54  52  93 CALM      30.22R
MONTAUK POINT    N/A     64  62  93 CALM      30.21R
$$

NYZ052-065-067-291200-
HUDSON VALLEY

CITY           SKY/WX    TMP DP  RH WIND       PRES   REMARKS
WHITE PLAINS   CLEAR     59  55  87 NW6       30.21R
NEWBURGH       NOT AVBL
MONTGOMERY     CLEAR     51  49  92 CALM      30.22R
POUGHKEEPSIE   CLEAR     53  51  93 CALM      30.21R
ALBANY         PTCLDY    55  52  89 CALM      30.21R
$$

NJZ001-105-106-008-010-013-015-019>022-104-291200-
NEW JERSEY

CITY           SKY/WX    TMP DP  RH WIND       PRES   REMARKS
NEWARK/LIBERTY PTCLDY    66  56  70 CALM      30.20R
TETERBORO      CLEAR     62  54  74 CALM      30.20R
CALDWELL       CLEAR     56  53  90 CALM      30.22R
MORRISTOWN     PTCLDY    55  55 100 CALM      30.22R
SOMERVILLE     CLEAR     53  51  93 CALM      30.20R
SUSSEX         CLEAR     49  47  93 CALM      30.23R
ANDOVER          N/A     51  50  96 CALM      30.23R
TRENTON        CLEAR     58  55  90 CALM      30.21R
MILLVILLE      CLEAR     55  53  93 CALM      30.21R
ATLANTIC CITY  CLEAR     57  54  89 CALM      30.22R
WRIGHTSTOWN    CLEAR     56  55  95 CALM      30.19R
TOMS RIVER     CLEAR     55  52  88 CALM      30.22R
BELMAR         CLEAR     61  52  72 CALM      30.21R
$$

PAZ047>061-062-071-291200-
EASTERN PENNSYLVANIA

CITY           SKY/WX    TMP DP  RH WIND       PRES   REMARKS
PHILADELPHIA   PTCLDY    66  57  72 N3        30.21R
ALLENTOWN      CLEAR     53  51  93 CALM      30.22R FOG
SCRANTON       CLEAR     55  50  83 E5        30.22S
$$

CTZ002-004>006-009-010-012-RIZ004-006-007-MAZ004-011-015-291200-
SOUTHERN NEW ENGLAND
 IN CT

CITY           SKY/WX    TMP DP  RH WIND       PRES   REMARKS
BRADLEY INTL   PTCLDY    55  52  89 NW3       30.20R
HARTFORD       CLEAR     58  56  93 CALM      30.20R
DANBURY        CLEAR     52  49  89 CALM      30.23R
WTRBRY/OXFORD  CLEAR     54  46  76 CALM      30.23R
BRIDGEPORT     CLEAR     61  56  83 N5        30.20R
MERIDEN        CLEAR     53  50  89 CALM      30.21R
NEW HAVEN      CLEAR     59  57  93 CALM      30.20R
CHESTER        NOT AVBL
GROTON         CLEAR     60  58  92 N3        30.20R
WILLIMANTIC    CLOUDY    54  51  90 CALM      30.21R FOG

 IN RI

CITY           SKY/WX    TMP DP  RH WIND       PRES   REMARKS
PROVIDENCE     PTCLDY    60  55  83 W5        30.19S
BLOCK ISLAND   CLEAR     64  61  88 CALM      30.20R
WESTERLY       CLEAR     57  55  93 CALM      30.20R

 IN MA

CITY           SKY/WX    TMP DP  RH WIND       PRES   REMARKS
BOSTON         PTCLDY    66  55  67 W7        30.19R
WORCESTER      CLEAR     59  52  77 W7        30.21R
WESTFIELD      PTCLDY    52  50  93 CALM      30.21R
PROVINCETOWN   CLEAR     61  54  77 CALM      30.19R
NANTUCKET      CLEAR     68  64  87 W6        30.19R
$$

ANZ330-335-338-340-345-350-353-355-291200-
COASTAL MARINE OBSERVATIONS


STATION/POSITION TIME  SKY/WX   TEMP    WIND        PRES    VSBY  WAVE
                                AIR SEA DIR/SP/G                  HT/PER
                 (UTC)          (F)     (DEG/KT/KT) (MB)    (MI)  (FT/S)
NY HARB ENTRANCE 0950            72 75  310/  6/  8 1021.8          3/11
4S FIRE IS       NOT AVBL
20S FIRE ISLAND  0950            73 74  290/  4/  6 1021.8          3/11
GREAT SOUTH BAY  1030            71 78  320/  6/  6   N/A
23SW MTP         1050            72 72  280/  8/  8 1022.1          3/11
HUDSON CANYON    NOT AVBL
KINGS POINT      NOT AVBL
EXECUTION ROCKS  1000            68     320/  6/  6   N/A
CENTRAL LI SOUND NOT AVBL
EASTERN LI SOUND 1000            66 71   20/  6/  8   N/A
ROBBINS REEF     NOT AVBL
$$


>>>>>>>>>>>>>>>>>>>>>>>>>>>> KEY <<<<<<<<<<<<<<<<<<<<<<<<<<<
>                                                          <
>     SKY/WX - SKY CONDITION/PRESENT WEATHER               <
>     TMP    - TEMPERATURE IN FAHRENHEIT                   <
>     DP     - DEWPOINT IN FAHRENHEIT                      <
>     RH     - RELATIVE HUMIDITY IN PERCENT                <
>     WIND   - DIRECTION AND SPEED IN MPH                  <
>     PRES   - MEAN SEA LEVEL PRESSURE IN INCHES OF HG     <
>     WCI    - WIND CHILL INDEX                            <
>     VSB    - VISIBILITY IN MILES                         <
>     HX     - HEAT INDEX                                  <
>     TC     - TEMPERATURE IN CELSIUS                      <
>     VRB    - VARIABLE WIND DIRECTION                     <
>                                                          <
>>>>>>>>>>>>>>>>>>>>>>>>>>>> KEY <<<<<<<<<<<<<<<<<<<<<<<<<<<




USA.gov is the U.S. government's official web portal to all federal, state and local government web resources and services.